TimeCDT,TemperatureF,Dew PointF,Humidity,Sea Level PressureIn,VisibilityMPH,Wind Direction,Wind SpeedMPH,Gust SpeedMPH,PrecipitationIn,Events,Conditions,WindDirDegrees,DateUTC
12:15 AM,62.6,58.1,85,29.85,10.0,Calm,Calm,-,N/A,,Clear,0,2013-09-26 05:15:00
12:35 AM,61.9,58.1,87,29.85,10.0,Calm,Calm,-,N/A,,Clear,0,2013-09-26 05:35:00
12:55 AM,62.1,57.9,86,29.85,10.0,Calm,Calm,-,N/A,,Clear,0,2013-09-26 05:55:00
1:15 AM,60.8,57.2,88,29.85,10.0,Calm,Calm,-,N/A,,Clear,0,2013-09-26 06:15:00
1:35 AM,60.8,57.2,88,29.85,10.0,Calm,Calm,-,N/A,,Clear,0,2013-09-26 06:35:00
1:55 AM,60.8,57.2,88,29.85,10.0,Calm,Calm,-,N/A,,Clear,0,2013-09-26 06:55:00
2:15 AM,60.4,56.3,86,29.85,10.0,Calm,Calm,-,N/A,,Clear,0,2013-09-26 07:15:00
2:35 AM,60.1,56.3,87,29.85,10.0,Calm,Calm,-,N/A,,Clear,0,2013-09-26 07:35:00
2:55 AM,59.5,56.1,88,29.85,10.0,Calm,Calm,-,N/A,,Clear,0,2013-09-26 07:55:00
3:15 AM,59.2,55.9,89,29.85,10.0,Calm,Calm,-,N/A,,Clear,0,2013-09-26 08:15:00
3:35 AM,59.0,55.9,90,29.85,10.0,Calm,Calm,-,N/A,,Clear,0,2013-09-26 08:35:00
3:55 AM,58.8,55.8,90,29.85,10.0,Calm,Calm,-,N/A,,Clear,0,2013-09-26 08:55:00
4:15 AM,58.8,55.8,90,29.85,10.0,Calm,Calm,-,N/A,,Clear,0,2013-09-26 09:15:00
4:35 AM,58.6,55.4,89,29.85,10.0,Calm,Calm,-,N/A,,Clear,0,2013-09-26 09:35:00
4:55 AM,57.9,54.9,90,29.86,10.0,Calm,Calm,-,N/A,,Clear,0,2013-09-26 09:55:00
5:15 AM,57.9,54.5,88,29.86,10.0,Calm,Calm,-,N/A,,Clear,0,2013-09-26 10:15:00
5:35 AM,58.1,54.7,88,29.87,10.0,Calm,Calm,-,N/A,,Clear,0,2013-09-26 10:35:00
5:55 AM,58.1,54.3,87,29.87,10.0,Calm,Calm,-,N/A,,Clear,0,2013-09-26 10:55:00
6:15 AM,58.3,54.7,88,29.87,10.0,Calm,Calm,-,N/A,,Clear,0,2013-09-26 11:15:00
6:35 AM,57.4,54.1,89,29.88,10.0,Calm,Calm,-,N/A,,Clear,0,2013-09-26 11:35:00
6:55 AM,58.1,54.5,88,29.89,10.0,Calm,Calm,-,N/A,,Clear,0,2013-09-26 11:55:00
7:15 AM,58.1,54.5,88,29.89,10.0,Calm,Calm,-,N/A,,Clear,0,2013-09-26 12:15:00
7:35 AM,58.1,54.7,88,29.90,10.0,Calm,Calm,-,N/A,,Clear,0,2013-09-26 12:35:00
7:55 AM,60.3,56.5,87,29.91,10.0,Calm,Calm,-,N/A,,Clear,0,2013-09-26 12:55:00
8:15 AM,63.3,57.9,83,29.91,10.0,Calm,Calm,-,N/A,,Clear,0,2013-09-26 13:15:00
8:35 AM,66.7,57.0,71,29.92,10.0,Calm,Calm,-,N/A,,Clear,0,2013-09-26 13:35:00
8:55 AM,71.2,59.2,66,29.93,10.0,Calm,Calm,-,N/A,,Clear,0,2013-09-26 13:55:00
9:15 AM,74.5,57.4,55,29.93,10.0,South,3.5,-,N/A,,Clear,170,2013-09-26 14:15:00
9:35 AM,77.2,56.1,48,29.94,10.0,SSE,3.5,-,N/A,,Clear,160,2013-09-26 14:35:00
9:55 AM,80.1,55.2,42,29.94,10.0,SSE,3.5,-,0.04,,Clear,160,2013-09-26 14:55:00
10:15 AM,81.9,54.9,39,29.94,10.0,Calm,Calm,-,N/A,,Clear,0,2013-09-26 15:15:00
10:35 AM,83.3,54.1,37,29.94,10.0,SSW,4.6,-,N/A,,Clear,200,2013-09-26 15:35:00
10:55 AM,85.1,50.5,30,29.94,10.0,SW,4.6,-,N/A,,Clear,220,2013-09-26 15:55:00
11:15 AM,85.8,50.9,30,29.94,10.0,West,4.6,-,N/A,,Clear,260,2013-09-26 16:15:00
11:35 AM,88.3,49.3,26,29.94,10.0,SW,5.8,-,N/A,,Clear,220,2013-09-26 16:35:00
11:55 AM,88.0,47.8,25,29.94,10.0,WSW,8.1,-,N/A,,Clear,240,2013-09-26 16:55:00
12:15 PM,89.4,50.0,26,29.94,10.0,SW,8.1,-,N/A,,Clear,230,2013-09-26 17:15:00
12:35 PM,89.2,50.9,27,29.93,10.0,SW,4.6,-,N/A,,Clear,220,2013-09-26 17:35:00
12:55 PM,90.1,50.9,26,29.92,10.0,SSE,6.9,-,N/A,,Clear,160,2013-09-26 17:55:00
1:15 PM,90.1,51.1,26,29.92,10.0,SSW,4.6,-,N/A,,Clear,210,2013-09-26 18:15:00
1:35 PM,91.4,51.6,26,29.91,10.0,SSE,8.1,-,N/A,,Clear,160,2013-09-26 18:35:00
1:55 PM,91.6,50.5,25,29.91,10.0,SE,5.8,-,N/A,,Clear,140,2013-09-26 18:55:00
2:15 PM,91.8,50.4,24,29.90,10.0,SSE,5.8,-,N/A,,Clear,150,2013-09-26 19:15:00
2:35 PM,92.3,48.9,23,29.89,10.0,SE,8.1,-,N/A,,Clear,130,2013-09-26 19:35:00
2:55 PM,92.1,51.3,25,29.89,10.0,South,5.8,-,N/A,,Clear,180,2013-09-26 19:55:00
3:15 PM,91.8,51.4,25,29.88,10.0,South,4.6,-,N/A,,Clear,170,2013-09-26 20:15:00
3:35 PM,92.3,51.4,25,29.88,10.0,Calm,Calm,-,N/A,,Clear,0,2013-09-26 20:35:00
3:55 PM,92.3,52.7,26,29.88,10.0,Calm,Calm,-,N/A,,Clear,0,2013-09-26 20:55:00
4:15 PM,92.8,54.1,27,29.87,10.0,South,5.8,-,N/A,,Clear,190,2013-09-26 21:15:00
4:35 PM,91.8,52.9,27,29.87,10.0,SSE,6.9,-,N/A,,Clear,160,2013-09-26 21:35:00
4:55 PM,91.9,51.8,25,29.87,10.0,Calm,Calm,-,N/A,,Clear,0,2013-09-26 21:55:00
5:15 PM,91.4,52.7,27,29.87,10.0,SSE,6.9,-,N/A,,Clear,150,2013-09-26 22:15:00
5:35 PM,90.7,53.1,28,29.87,10.0,South,4.6,-,N/A,,Clear,190,2013-09-26 22:35:00
5:55 PM,90.3,53.6,29,29.88,10.0,South,3.5,-,N/A,,Clear,180,2013-09-26 22:55:00
6:15 PM,89.1,55.2,32,29.88,10.0,Calm,Calm,-,N/A,,Clear,0,2013-09-26 23:15:00
6:35 PM,86.5,57.7,37,29.88,10.0,Calm,Calm,-,N/A,,Clear,0,2013-09-26 23:35:00
6:55 PM,82.8,60.6,47,29.88,10.0,Calm,Calm,-,N/A,,Clear,0,2013-09-26 23:55:00
7:15 PM,80.2,61.5,53,29.88,10.0,Calm,Calm,-,N/A,,Clear,0,2013-09-27 00:15:00
7:35 PM,76.6,61.5,59,29.88,10.0,Calm,Calm,-,N/A,,Clear,0,2013-09-27 00:35:00
7:55 PM,76.8,61.9,60,29.89,10.0,Calm,Calm,-,N/A,,Clear,0,2013-09-27 00:55:00
8:15 PM,75.2,61.7,63,29.89,10.0,Calm,Calm,-,N/A,,Clear,0,2013-09-27 01:15:00
8:35 PM,75.0,63.0,66,29.89,10.0,Calm,Calm,-,N/A,,Clear,0,2013-09-27 01:35:00
8:55 PM,73.4,62.1,68,29.90,10.0,Calm,Calm,-,N/A,,Clear,0,2013-09-27 01:55:00
9:15 PM,72.7,61.7,68,29.90,10.0,Calm,Calm,-,N/A,,Clear,0,2013-09-27 02:15:00
9:35 PM,72.5,59.9,64,29.91,10.0,Calm,Calm,-,N/A,,Clear,0,2013-09-27 02:35:00
9:55 PM,72.0,60.3,67,29.91,10.0,Calm,Calm,-,N/A,,Clear,0,2013-09-27 02:55:00
10:15 PM,70.9,60.6,70,29.91,10.0,Calm,Calm,-,N/A,,Clear,0,2013-09-27 03:15:00
10:35 PM,69.8,59.9,71,29.91,10.0,Calm,Calm,-,N/A,,Clear,0,2013-09-27 03:35:00
10:55 PM,69.6,60.4,73,29.92,10.0,ESE,3.5,-,N/A,,Clear,120,2013-09-27 03:55:00
11:15 PM,70.0,58.3,66,29.92,10.0,Calm,Calm,-,N/A,,Clear,0,2013-09-27 04:15:00
11:35 PM,69.6,59.4,70,29.92,10.0,Calm,Calm,-,N/A,,Clear,0,2013-09-27 04:35:00
11:55 PM,68.5,58.6,71,29.92,10.0,Calm,Calm,-,N/A,,Clear,0,2013-09-27 04:55:00